TimeCST,TemperatureF,Dew PointF,Humidity,Sea Level PressureIn,VisibilityMPH,Wind Direction,Wind SpeedMPH,Gust SpeedMPH,PrecipitationIn,Events,Conditions,WindDirDegrees,DateUTC
12:15 AM,75.2,69.8,83,29.80,10.0,South,10.4,-,N/A,,Unknown,180,2012-12-10 06:15:00
12:35 AM,75.2,69.8,83,29.80,10.0,South,10.4,-,N/A,,Unknown,180,2012-12-10 06:35:00
12:55 AM,75.2,69.6,83,29.80,10.0,South,9.2,-,N/A,,Unknown,180,2012-12-10 06:55:00
1:15 AM,74.8,69.6,84,29.80,10.0,South,9.2,-,N/A,,Unknown,180,2012-12-10 07:15:00
1:35 AM,74.8,69.8,84,29.80,7.0,South,11.5,-,N/A,,Unknown,190,2012-12-10 07:35:00
1:55 AM,74.7,69.6,84,29.79,7.0,South,9.2,-,N/A,,Unknown,180,2012-12-10 07:55:00
2:15 AM,74.3,69.4,85,29.78,7.0,South,9.2,18.4,N/A,,Unknown,180,2012-12-10 08:15:00
2:55 AM,73.6,69.3,86,29.79,7.0,South,5.8,-,N/A,,Unknown,180,2012-12-10 08:55:00
3:15 AM,73.4,69.4,87,29.78,7.0,South,9.2,-,N/A,,Unknown,180,2012-12-10 09:15:00
3:35 AM,73.4,69.3,87,29.78,7.0,South,10.4,-,N/A,,Unknown,180,2012-12-10 09:35:00
3:55 AM,73.4,69.3,87,29.78,7.0,South,11.5,16.1,N/A,,Unknown,180,2012-12-10 09:55:00
4:15 AM,73.4,69.8,88,29.78,5.0,South,11.5,16.1,N/A,,Mist,180,2012-12-10 10:15:00
4:35 AM,73.4,69.4,87,29.78,5.0,South,9.2,-,N/A,,Mist,180,2012-12-10 10:35:00
4:55 AM,73.4,69.4,87,29.78,5.0,South,10.4,-,N/A,,Mist,190,2012-12-10 10:55:00
5:15 AM,72.5,69.1,89,29.78,5.0,SSW,6.9,-,N/A,,Mist,200,2012-12-10 11:15:00
5:35 AM,72.0,68.9,90,29.80,5.0,Calm,Calm,-,N/A,,Mist,0,2012-12-10 11:35:00
5:55 AM,71.8,68.5,89,29.81,5.0,SW,3.5,-,N/A,,Mist,230,2012-12-10 11:55:00
6:15 AM,70.9,67.6,89,29.83,4.0,NW,4.6,-,N/A,,Mist,310,2012-12-10 12:15:00
6:35 AM,70.9,68.2,91,29.86,3.0,NW,5.8,-,N/A,,Mist,310,2012-12-10 12:35:00
6:55 AM,71.2,68.2,90,29.88,3.0,NW,5.8,-,N/A,,Mist,310,2012-12-10 12:55:00
7:15 AM,71.4,68.2,89,29.89,4.0,NW,8.1,-,N/A,,Mist,320,2012-12-10 13:15:00
7:35 AM,71.6,68.0,88,29.91,4.0,NNW,11.5,-,N/A,,Mist,340,2012-12-10 13:35:00
7:55 AM,59.7,52.9,78,29.95,7.0,North,19.6,33.4,N/A,Rain,Light Rain,360,2012-12-10 13:55:00
8:15 AM,59.5,51.3,74,29.98,7.0,North,17.3,31.1,N/A,,Unknown,360,2012-12-10 14:15:00
8:35 AM,59.5,50.0,71,29.99,10.0,North,17.3,26.5,N/A,,Unknown,360,2012-12-10 14:35:00
8:55 AM,59.4,47.8,66,30.01,10.0,North,17.3,28.8,N/A,,Unknown,360,2012-12-10 14:55:00
9:15 AM,59.2,46.6,63,30.02,10.0,North,16.1,28.8,N/A,,Unknown,10,2012-12-10 15:15:00
9:35 AM,57.7,43.0,58,30.05,10.0,North,21.9,40.3,N/A,,Unknown,350,2012-12-10 15:35:00
9:55 AM,57.6,41.9,56,30.06,10.0,North,16.1,28.8,N/A,,Unknown,360,2012-12-10 15:55:00
10:15 AM,56.7,37.0,48,30.07,10.0,North,23.0,31.1,N/A,,Unknown,350,2012-12-10 16:15:00
10:35 AM,56.1,32.9,41,30.08,10.0,North,20.7,27.6,N/A,,Unknown,350,2012-12-10 16:35:00
10:55 AM,55.0,30.0,38,30.08,10.0,North,15.0,33.4,N/A,,Unknown,360,2012-12-10 16:55:00
11:15 AM,55.0,28.9,37,30.08,10.0,North,16.1,25.3,N/A,,Unknown,360,2012-12-10 17:15:00
11:35 AM,55.4,27.9,35,30.09,10.0,North,17.3,23.0,N/A,,Unknown,360,2012-12-10 17:35:00
11:55 AM,55.4,27.3,34,30.09,10.0,North,16.1,24.2,N/A,,Unknown,350,2012-12-10 17:55:00
12:15 PM,55.4,25.3,31,30.09,10.0,North,18.4,24.2,N/A,,Unknown,360,2012-12-10 18:15:00
12:35 PM,56.3,26.2,32,30.08,10.0,North,15.0,20.7,N/A,,Unknown,350,2012-12-10 18:35:00
12:55 PM,57.7,25.7,29,30.06,10.0,North,16.1,24.2,N/A,,Unknown,360,2012-12-10 18:55:00
1:15 PM,59.2,25.9,28,30.06,10.0,North,17.3,24.2,N/A,,Unknown,350,2012-12-10 19:15:00
1:35 PM,59.2,25.3,27,30.05,10.0,North,16.1,27.6,N/A,,Unknown,350,2012-12-10 19:35:00
1:55 PM,59.4,25.0,27,30.04,10.0,North,13.8,24.2,N/A,,Unknown,360,2012-12-10 19:55:00
2:15 PM,61.0,24.8,25,30.04,10.0,North,10.4,20.7,N/A,,Unknown,360,2012-12-10 20:15:00
2:35 PM,61.3,24.6,25,30.04,10.0,North,15.0,23.0,N/A,,Unknown,10,2012-12-10 20:35:00
2:55 PM,60.4,24.1,25,30.04,10.0,North,12.7,17.3,N/A,,Unknown,360,2012-12-10 20:55:00
3:15 PM,60.6,23.2,24,30.04,10.0,North,11.5,20.7,N/A,,Unknown,10,2012-12-10 21:15:00
3:35 PM,61.0,23.2,24,30.04,10.0,North,13.8,17.3,N/A,,Unknown,350,2012-12-10 21:35:00
3:55 PM,60.8,22.6,23,30.03,10.0,NNE,13.8,18.4,N/A,,Unknown,20,2012-12-10 21:55:00
4:15 PM,60.4,22.5,23,30.03,10.0,North,9.2,-,N/A,,Unknown,360,2012-12-10 22:15:00
4:35 PM,60.4,23.0,24,30.03,10.0,NNE,10.4,-,N/A,,Unknown,20,2012-12-10 22:35:00
4:55 PM,59.5,23.5,25,30.04,10.0,NNE,8.1,-,N/A,,Unknown,30,2012-12-10 22:55:00
5:15 PM,58.5,23.9,26,30.04,10.0,NNE,6.9,-,N/A,,Unknown,20,2012-12-10 23:15:00
5:35 PM,57.2,25.5,30,30.04,10.0,NNE,4.6,-,N/A,,Unknown,20,2012-12-10 23:35:00
5:55 PM,55.9,26.4,32,30.04,10.0,NNE,4.6,-,N/A,,Unknown,20,2012-12-10 23:55:00
6:15 PM,54.9,27.3,35,30.05,10.0,NNE,3.5,-,N/A,,Unknown,30,2012-12-11 00:15:00
6:35 PM,54.0,29.3,39,30.05,10.0,NNE,3.5,-,N/A,,Unknown,30,2012-12-11 00:35:00
6:55 PM,54.0,28.9,38,30.05,10.0,Calm,Calm,-,N/A,,Unknown,0,2012-12-11 00:55:00
7:15 PM,53.4,30.0,41,30.06,10.0,Calm,Calm,-,N/A,,Unknown,0,2012-12-11 01:15:00
7:35 PM,52.5,31.6,45,30.06,10.0,Calm,Calm,-,N/A,,Unknown,0,2012-12-11 01:35:00
7:55 PM,52.2,32.7,48,30.08,10.0,NW,3.5,-,N/A,,Unknown,320,2012-12-11 01:55:00
8:15 PM,53.2,29.8,41,30.08,10.0,Calm,Calm,-,N/A,,Unknown,0,2012-12-11 02:15:00
8:35 PM,52.0,31.6,46,30.08,10.0,NNE,3.5,-,N/A,,Unknown,20,2012-12-11 02:35:00
8:55 PM,52.3,28.9,41,30.09,10.0,Calm,Calm,-,N/A,,Unknown,0,2012-12-11 02:55:00
9:15 PM,51.8,28.9,41,30.09,10.0,Calm,Calm,-,N/A,,Unknown,0,2012-12-11 03:15:00
9:35 PM,51.1,30.0,44,30.10,10.0,Calm,Calm,-,N/A,,Unknown,0,2012-12-11 03:35:00
9:55 PM,51.1,30.9,46,30.10,10.0,Calm,Calm,-,N/A,,Unknown,0,2012-12-11 03:55:00
10:15 PM,50.4,31.5,48,30.11,10.0,Calm,Calm,-,N/A,,Unknown,0,2012-12-11 04:15:00
10:35 PM,50.4,32.5,50,30.11,10.0,Calm,Calm,-,N/A,,Unknown,0,2012-12-11 04:35:00
10:55 PM,49.8,33.3,53,30.11,10.0,Calm,Calm,-,N/A,,Unknown,0,2012-12-11 04:55:00
11:15 PM,49.6,32.0,51,30.10,10.0,Calm,Calm,-,N/A,,Unknown,0,2012-12-11 05:15:00
11:35 PM,50.0,32.0,50,30.09,10.0,Calm,Calm,-,N/A,,Unknown,0,2012-12-11 05:35:00
11:55 PM,49.3,33.8,55,30.12,10.0,Calm,Calm,-,N/A,,Unknown,0,2012-12-11 05:55:00